User: anonymous
Location: Melbourne
(37.8170°S, 144.9670°E)
Time: 10:43:49
(UTC+10:00)
Language:

Cosmos 1656 Rocket - Orbit

View from above orbital plane
View from above orbital plane
View from above satellite
View from above satellite

Ground track
Ground track

The orbit data is extracted from the following two-line orbital elements,

1 15772U 85042D   14113.93565031  .00000185  00000-0  10660-3 0  3582
2 15772 071.1097 242.4283 0034763 027.9182 111.3997 14.21004347498037
Epoch (UTC): 23 April 2014 22:27:20
Eccentricity: 0.0034763
inclination: 71.1097°
perigee height: 797 km
apogee height: 847 km
right ascension of ascending node: 242.4283°
argument of perigee: 27.9182°
revolutions per day: 14.21004347
mean anomaly at epoch: 111.3997°
orbit number at epoch: 49803

The dashed part of the orbit path shows where the satellite is in the earth's shadow,  

DLR